This demonstration page uses our WeatherBlox Daily Observations layout. Learn more.

Left ArrowRight Arrow

Hourly Observations for January 16, 2019

Temp ( °F °C ) Dew Point ( °F °C ) Humidity (%) Winds ( mph kmh ) Pressure ( in mb ) Visibility ( mi km ) Precip ( " mm )
12:59 am 00:59 Mostly Clear 30 -1.1 27 -2.8 88 88 S 3 6 30.18 1022 7 11 0.00 0.00
1:59 am 01:59 Mostly Clear 31 -0.6 28 -2.2 89 89 S 5 7 30.19 1022 7 11 0.00 0.00
2:59 am 02:59 Mostly Clear 31 -0.6 28 -2.2 89 89 S 5 7 30.19 1022 8 13 0.00 0.00
3:59 am 03:59 Mostly Clear 32 0 28 -2.2 85 85 SSW 5 7 30.17 1022 8 13 0.00 0.00
4:59 am 04:59 Mostly Clear 33 0.6 29 -1.7 85 85 SW 7 11 30.16 1021 8 13 0.00 0.00
5:59 am 05:59 Mostly Clear 33 0.6 28 -2.2 82 82 SW 7 11 30.16 1021 8 13 0.00 0.00
6:59 am 06:59 Clear 35 1.7 29 -1.7 78 78 SW 10 17 30.17 1022 9 14 0.00 0.00
7:59 am 07:59 Sunny 34 1.1 30 -1.1 85 85 SSW 7 11 30.17 1022 7 11 0.00 0.00
8:59 am 08:59 Mostly Sunny 37 2.8 30 -1.1 76 76 SW 9 15 30.18 1022 7 11 0.00 0.00
9:59 am 09:59 Mostly Sunny 41 5 31 -0.6 67 67 WSW 10 17 30.20 1023 10 16 0.00 0.00
10:59 am 10:59 Partly Cloudy 44 6.7 31 -0.6 60 60 WSW 10 17 30.18 1022 10 16 0.00 0.00
11:59 am 11:59 Partly Cloudy 46 7.8 32 0 58 58 W 10 17 30.16 1022 10 16 0.00 0.00
12:59 pm 12:59 Partly Cloudy 48 8.9 32 0 54 54 WNW 8 13 30.14 1021 10 16 0.00 0.00
1:59 pm 13:59 Partly Cloudy 46 7.8 32 0 58 58 NNE 13 20 30.16 1021 10 16 0.00 0.00
2:59 pm 14:59 Partly Cloudy 43 6.1 32 0 65 65 NE 13 20 30.16 1022 10 16 0.00 0.00
3:59 pm 15:59 Partly Cloudy 42 5.6 30 -1.1 62 62 ENE 9 15 30.18 1022 10 16 0.00 0.00
4:59 pm 16:59 Partly Cloudy 41 5 30 -1.1 65 65 NE 9 15 30.20 1023 10 16 0.00 0.00
5:59 pm 17:59 Partly Cloudy 40 4.4 30 -1.1 68 68 NE 9 15 30.22 1023 10 16 0.00 0.00
6:59 pm 18:59 Partly Cloudy 40 4.4 30 -1.1 68 68 NE 12 19 30.24 1024 10 16 0.00 0.00
7:59 pm 19:59 Partly Cloudy 40 4.4 30 -1.1 68 68 ENE 10 17 30.26 1025 10 16 0.00 0.00
8:59 pm 20:59 Partly Cloudy 39 3.9 30 -1.1 70 70 E 9 15 30.27 1025 10 16 0.00 0.00
9:59 pm 21:59 Partly Cloudy 39 3.9 31 -0.6 73 73 ENE 7 11 30.29 1026 10 16 0.00 0.00
10:59 pm 22:59 Partly Cloudy 39 3.9 30 -1.1 70 70 ENE 7 11 30.30 1026 10 16 0.00 0.00
11:59 pm 23:59 Mostly Cloudy 40 4.4 29 -1.7 65 65 NE 12 19 30.32 1027 10 16 0.00 0.00

Powered by AerisWeather